Satellite: CO-57
Catalog number: 27848
Epoch time:      09175.57723077
Element set:     555
Inclination:      098.7141 deg
RA of node:       183.6982 deg
Eccentricity:    0.0010218
Arg of perigee:   121.6656 deg
Mean anomaly:     238.5513 deg
Mean motion:   14.20444859 rev/day
Decay rate:        1.8e-07 rev/day^2
Epoch rev:           31027
Checksum:              323

Satellite: AO-51
Catalog number: 28375
Epoch time:      09176.57690259
Element set:     421
Inclination:      098.0512 deg
RA of node:       185.6902 deg
Eccentricity:    0.0084770
Arg of perigee:   099.1173 deg
Mean anomaly:     261.9616 deg
Mean motion:   14.40645546 rev/day
Decay rate:        3.0e-08 rev/day^2
Epoch rev:           26216
Checksum:              318

Satellite: CO-56
Catalog number: 28941
Epoch time:      09176.55364702
Element set:     197
Inclination:      098.1393 deg
RA of node:       352.5601 deg
Eccentricity:    0.0082223
Arg of perigee:   101.0558 deg
Mean anomaly:     259.9954 deg
Mean motion:   15.85707484 rev/day
Decay rate:     6.5207e-04 rev/day^2
Epoch rev:           18857
Checksum:              348

Satellite: GENESAT1
Catalog number: 29655
Epoch time:      09175.96435867
Element set:    0746
Inclination:      040.0233 deg
RA of node:       134.5766 deg
Eccentricity:    0.0002092
Arg of perigee:   231.9162 deg
Mean anomaly:     128.1467 deg
Mean motion:   15.65742955 rev/day
Decay rate:      7.422e-05 rev/day^2
Epoch rev:           14369
Checksum:              320

Satellite: CP3
Catalog number: 31129
Epoch time:      09176.71624616
Element set:      18
Inclination:      097.9885 deg
RA of node:       229.3834 deg
Eccentricity:    0.0101257
Arg of perigee:   258.7852 deg
Mean anomaly:     100.1941 deg
Mean motion:   14.52141115 rev/day
Decay rate:       1.02e-06 rev/day^2
Epoch rev:           11612
Checksum:              278

Satellite: CO-65
Catalog number: 32785
Epoch time:      09176.70268926
Element set:     400
Inclination:      097.9453 deg
RA of node:       240.5990 deg
Eccentricity:    0.0015235
Arg of perigee:   008.3830 deg
Mean anomaly:     351.7612 deg
Mean motion:   14.81493670 rev/day
Decay rate:        9.6e-07 rev/day^2
Epoch rev:            6270
Checksum:              316

Satellite: KKS-1
Catalog number: 33493
Epoch time:      09176.88419017
Element set:     508
Inclination:      098.0580 deg
RA of node:       289.1313 deg
Eccentricity:    0.0019414
Arg of perigee:   210.4079 deg
Mean anomaly:     149.6019 deg
Mean motion:   14.80688384 rev/day
Decay rate:       1.86e-06 rev/day^2
Epoch rev:            2275
Checksum:              317

Satellite: SOHLA-1
Catalog number: 33496
Epoch time:      09176.83034283
Element set:     470
Inclination:      098.0391 deg
RA of node:       286.0037 deg
Eccentricity:    0.0005305
Arg of perigee:   254.2821 deg
Mean anomaly:     105.7805 deg
Mean motion:   14.69437775 rev/day
Decay rate:        2.0e-08 rev/day^2
Epoch rev:            2254
Checksum:              290

/EX
SB KEPS @ AMSAT  $ORB09176.W
Orbital Elements  09176.WEATHER

HR AMSAT ORBITAL ELEMENTS FOR WEATHER SATELLITES
FROM WA5QGD FORT WORTH,TX June 25, 2009
Send Subscribe/unsubscribe to KEPS at 
http://www.amsat.org/mailman/listinfo/keps
BID: ORB09176.W
TO ALL RADIO AMATEURS BT

Satellite: NOAA-10
Catalog number: 16969
Epoch time:      09175.72772319
Element set:    0664
Inclination:      098.6905 deg
RA of node:       202.3341 deg
Eccentricity:    0.0012293
Arg of perigee:   171.0362 deg
Mean anomaly:     189.1022 deg
Mean motion:   14.27389512 rev/day
Decay rate:        8.4e-07 rev/day^2
Epoch rev:           18458
Checksum:              311

Satellite: NOAA-11
Catalog number: 19531
Epoch time:      09175.49113686
Element set:    0677
Inclination:      098.7869 deg
RA of node:       265.3322 deg
Eccentricity:    0.0012413
Arg of perigee:   089.4171 deg
Mean anomaly:     270.8423 deg
Mean motion:   14.14897749 rev/day
Decay rate:       -1.0e-08 rev/day^2
Epoch rev:           07055
Checksum:              323

Satellite: NOAA-12
Catalog number: 21263
Epoch time:      09175.96824484
Element set:    0189
Inclination:      098.7709 deg
RA of node:       184.0309 deg
Eccentricity:    0.0013207
Arg of perigee:   120.1820 deg
Mean anomaly:     240.0669 deg
Mean motion:   14.25583101 rev/day
Decay rate:        5.0e-08 rev/day^2
Epoch rev:           94150
Checksum:              287

Satellite: MET-3/5
Catalog number: 21655
Epoch time:      09175.97408281
Element set:    0724
Inclination:      082.5516 deg
RA of node:       200.9922 deg
Eccentricity:    0.0013420
Arg of perigee:   155.9174 deg
Mean anomaly:     204.2578 deg
Mean motion:   13.17019186 rev/day
Decay rate:        5.1e-07 rev/day^2
Epoch rev:           85865
Checksum:              308

Satellite: MET-2/21
Catalog number: 22782
Epoch time:      09175.55519873
Element set:    0494
Inclination:      082.5466 deg
RA of node:       176.1630 deg
Eccentricity:    0.0021530
Arg of perigee:   329.9082 deg
Mean anomaly:     030.0833 deg
Mean motion:   13.83635925 rev/day
Decay rate:        3.1e-07 rev/day^2
Epoch rev:           79862
Checksum:              316

